User: anonymous   Login
Location: Unspecified
(44.0704°N, 88.6889°W)
Time: 00:43:21
(UTC+02:00)
Language:

Transit 2A Rocket - Orbit

View from above orbital plane
View from above orbital plane
View from above satellite
View from above satellite

Ground track
Ground track

The orbit data is extracted from the following two-line orbital elements,

1    47U 60007C   19167.95209892 -.00000054 +00000-0 +13236-4 0  9991
2    47 066.6668 054.9232 0232106 213.0346 145.6080 14.42038097081831
Epoch (UTC): 16 June 2019 22:51:01
Eccentricity: 0.0232106
inclination: 66.6668°
perigee height: 586 km
apogee height: 917 km
right ascension of ascending node: 54.9232°
argument of perigee: 213.0346°
revolutions per day: 14.42038097
mean anomaly at epoch: 145.6080°
orbit number at epoch: 8183

The dashed part of the orbit path shows where the satellite is in the earth's shadow,  

DLR